sat.trackr.live / text

‹ back to catalog

STARLINK-35895

NORAD 66354 · 2025-254G

PAYLOAD ACTIVE UNKNOWN

§ Identity

Operator
Country
US
Launch date
2025-11-06
Launch site
AFWTR
Launch vehicle
Mass (kg)
RCS (m²)

Purposes: comms

External: N2YO · Heavens-Above · Gunter

§ Orbital elements

Epoch: 2026-05-24T23:47:06.910080Z

Period
94.10 min
Inclination
53.1586°
Eccentricity
0.0000855
Mean motion
15.30208202 rev/d
Perigee alt
474.6 km
Apogee alt
475.8 km
Semi-major
6,853.3 km
B*
4.7776e-4
RAAN
238.3436°
Arg perigee
79.4151°
Mean anomaly
280.6946°
Rev number
3,065

§ Raw data

STARLINK-358951 66354U 25254G   26144.99105220  .00013821  00000+0  47776-3 0  99952 66354  53.1586 238.3436 0000855  79.4151 280.6946 15.30208202 30650

JSON: /api/v1/satellites/66354 · /tle

For live sub-satellite position, see the globe view (requires WebGL).

§ Visibility from observer

Set your observer location to see the next 7 days of passes ≥ 10°. The values pass through the URL so the page stays shareable.

No JS? Fill the form by hand. The geolocation button needs JavaScript.